CZ-6A DEB, 54923

Orbit data source: Space-Track

CZ-6A DEB, 54923 is space debris in SSO originally from a launch on Fri, 11 Nov 2022 UTC launched from the Taiyaun Space Center, China (TSC). Debris objects in space refer to the collection of defunct objects orbiting the Earth. Examples of debris include non-operational satellites, rocket bodies, and fragments generated from explosions, collisions, or faulty payload assembly.

Loading next visibility...
Identifier
54923, 2022-151RL
Orbit
SSO
Country
Flag of CNCN / PRC
Related business
Manufacturer
SAST
Mission
Spacecraft
Bus & Motor
Unknown
Mass
Unknown
Launch date (UTC)
2022-11-11 (4 years ago)
Launch vehicle
Unknown
Launch site
Taiyaun Space Center, China (TSC)
Object type
Payload
Rocket body
Debris
Shape & HBR
Unknown shape, 0.1 m
Radar Cross Section
Medium (>0.1 m² and <1 m²)

Expand to show TLE details & history
Last TLE update: 9 hours ago

TLE from 9 hours ago
0 CZ-6A DEB
1 54923U 22151RL  26236.44125535  .00000095  00000-0  79720-4 0  9995
2 54923  98.8602 232.1491 0054574 162.0198 198.2918 14.08244431190786
Epoch: 2026-08-24T10:35Z
TLE epoch observation values (Epoch: 2026-08-24T10:35:24.462Z)
Latitude
-0.00002°
Longitude
100.57426°
Altitude
905.841 km
Speed
7.38 km/s
True Right ascension
15h 28m 35s
True Declination
0° 00' 00"
Sunlit
Object was in daylight at epoch
Visualization orbit readout
Latitude
Unknown
Longitude
Unknown
Altitude
Unknown
Speed
Unknown
Apparent Right ascension
Unknown
Apparent Declination
Unknown
Sunlit
N/A
Visualization observer readout
Local Sidereal Time
10:51:38
Azimuth
Unknown
Elevation
Unknown
Doppler factor
Unknown
Orbital elements
Apogee altitude
902.082 km
Perigee altitude
823.052 km
Semi-major axis
7,240.704 km
Eccentricity
0.00546
Inclination
98.8602°
RAAN
232.1491°
Arg. of periapsis
162.0198°
True anomaly
198.09679°
Mean anomaly
198.2918°
Eccentric anomaly
198.19417°
Mean motion
3.52267 °/min
Orbital period
102.2 mins
BSTAR
0.00007972
Loading maneuver chart data...
Computing Atmospheric mass density...
Loading historical data...
Loading historical data...
Loading historical data...
Loading historical data...
Loading historical data...
Loading historical data...
Loading historical data...

Documentation

Showing up to 5 results
|